Tracking 19280 objects as of 15-Nov-2018
HD Live streaming from Space Station
objects crossing your sky now

INTELSAT 508

Track INTELSAT 508 now!
INTELSAT 508 is classified as:


NORAD ID: 14786
Int'l Code: 1984-023A
Perigee: 36,588.6 km
Apogee: 36,712.1 km
Inclination: 15.9 °
Period: 1,480.1 minutes
Semi major axis: 43021 km
RCS: 7.6859 m2 (large)
Launch date: March 5, 1984
Source: International Telecommunications Satellite Organization (ITSO)
Launch site: FRENCH GUIANA (FRGUI)
aabbcc
Your satellite tracking list
Your tracking list is empty




NASA's NSSDC Master Catalog

Two Line Element Set (TLE):
1 14786U 84023A   18319.12373562 -.00000105  00000-0  00000+0 0  9990
2 14786  15.8759 359.6355 0014345 174.3105 316.8666  0.97291921 88289
Source of the keplerian elements: AFSPC